14-01-2022, 00:00:01,    232,    0.0,   -0.1,   0.00,   0.00, 1032.5,   90.9, -999.0
14-01-2022, 00:00:11,    232,    0.0,   -0.1,   0.00,   0.00, 1032.5,   90.9, -999.0
14-01-2022, 00:00:21,    231,    0.0,   -0.3,   0.00,   0.00, 1032.5,   90.8, -999.0
14-01-2022, 00:00:31,    232,    0.0,   -0.1,   0.00,   0.00, 1032.5,   90.8, -999.0
14-01-2022, 00:00:41,    232,    0.0,   -0.1,   0.00,   0.00, 1032.5,   90.8, -999.0
14-01-2022, 00:00:51,    231,    0.0,   -0.2,   0.00,   0.00, 1032.5,   90.6, -999.0
14-01-2022, 00:01:01,    231,    0.0,   -0.2,   0.00,   0.00, 1032.5,   90.8, -999.0
14-01-2022, 00:01:11,    231,    0.0,   -0.2,   0.00,   0.00, 1032.5,   90.7, -999.0
14-01-2022, 00:01:21,    232,    0.0,   -0.2,   0.00,   0.00, 1032.5,   90.7, -999.0
14-01-2022, 00:01:31,    232,    0.0,   -0.2,   0.00,   0.00, 1032.5,   90.8, -999.0
14-01-2022, 00:01:41,    232,    0.0,   -0.3,   0.00,   0.00, 1032.5,   90.7, -999.0
14-01-2022, 00:01:51,    231,    0.0,   -0.2,   0.00,   0.00, 1032.5,   90.8, -999.0
14-01-2022, 00:02:01,    232,    0.0,   -0.2,   0.00,   0.00, 1032.5,   90.8, -999.0
14-01-2022, 00:02:11,    232,    0.0,   -0.2,   0.00,   0.00, 1032.5,   90.8, -999.0
14-01-2022, 00:02:20,    231,    0.0,   -0.1,   0.00,   0.00, 1032.5,   90.9, -999.0
14-01-2022, 00:02:31,    232,    0.0,   -0.2,   0.00,   0.00, 1032.5,   90.9, -999.0
14-01-2022, 00:02:41,    232,    0.0,   -0.1,   0.00,   0.00, 1032.5,   90.9, -999.0
14-01-2022, 00:02:50,    232,    0.0,   -0.2,   0.00,   0.00, 1032.4,   90.9, -999.0
14-01-2022, 00:03:01,    231,    0.0,   -0.1,   0.00,   0.00, 1032.5,   91.0, -999.0
14-01-2022, 00:03:10,    232,    0.0,   -0.2,   0.00,   0.00, 1032.5,   90.9, -999.0
14-01-2022, 00:03:20,    232,    0.0,   -0.2,   0.00,   0.00, 1032.5,   90.9, -999.0
14-01-2022, 00:03:30,    231,    0.0,   -0.2,   0.00,   0.00, 1032.4,   90.9, -999.0
14-01-2022, 00:03:40,    232,    0.0,   -0.2,   0.00,   0.00, 1032.4,   91.0, -999.0
14-01-2022, 00:03:50,    232,    0.0,   -0.2,   0.00,   0.00, 1032.4,   90.9, -999.0
14-01-2022, 00:04:00,    232,    0.0,   -0.2,   0.00,   0.00, 1032.4,   90.9, -999.0
14-01-2022, 00:04:10,    232,    0.0,   -0.2,   0.00,   0.00, 1032.4,   91.0, -999.0
14-01-2022, 00:04:20,    232,    0.0,   -0.2,   0.00,   0.00, 1032.4,   91.0, -999.0
14-01-2022, 00:04:30,    232,    0.0,   -0.2,   0.00,   0.00, 1032.4,   91.1, -999.0
14-01-2022, 00:04:40,    231,    0.0,   -0.2,   0.00,   0.00, 1032.4,   91.0, -999.0
14-01-2022, 00:04:50,    232,    0.0,   -0.1,   0.00,   0.00, 1032.4,   91.1, -999.0
14-01-2022, 00:05:00,    232,    0.0,   -0.3,   0.00,   0.00, 1032.4,   91.1, -999.0
14-01-2022, 00:05:10,    232,    0.0,   -0.2,   0.00,   0.00, 1032.4,   91.1, -999.0
14-01-2022, 00:05:20,    232,    0.0,   -0.2,   0.00,   0.00, 1032.4,   91.0, -999.0
14-01-2022, 00:05:30,    232,    0.0,   -0.2,   0.00,   0.00, 1032.4,   91.1, -999.0
14-01-2022, 00:05:40,    232,    0.0,   -0.2,   0.00,   0.00, 1032.4,   91.0, -999.0
14-01-2022, 00:05:50,    232,    0.0,   -0.2,   0.00,   0.00, 1032.4,   90.9, -999.0
14-01-2022, 00:05:59,    231,    0.0,   -0.2,   0.00,   0.00, 1032.4,   91.0, -999.0
14-01-2022, 00:06:10,    232,    0.0,   -0.2,   0.00,   0.00, 1032.5,   90.9, -999.0
14-01-2022, 00:06:19,    232,    0.0,   -0.2,   0.00,   0.00, 1032.4,   91.1, -999.0
14-01-2022, 00:06:29,    231,    0.0,   -0.1,   0.00,   0.00, 1032.4,   91.1, -999.0
14-01-2022, 00:06:39,    231,    0.0,   -0.2,   0.00,   0.00, 1032.4,   91.2, -999.0
14-01-2022, 00:06:49,    232,    0.0,   -0.1,   0.00,   0.00, 1032.4,   91.3, -999.0
14-01-2022, 00:06:59,    231,    0.0,   -0.1,   0.00,   0.00, 1032.4,   91.3, -999.0
14-01-2022, 00:07:09,    232,    0.0,   -0.1,   0.00,   0.00, 1032.4,   91.3, -999.0
14-01-2022, 00:07:19,    232,    0.0,   -0.1,   0.00,   0.00, 1032.4,   91.4, -999.0
14-01-2022, 00:07:29,    232,    0.0,   -0.1,   0.00,   0.00, 1032.4,   91.4, -999.0
14-01-2022, 00:07:39,    232,    0.0,    0.0,   0.00,   0.00, 1032.4,   91.3, -999.0
14-01-2022, 00:07:49,    232,    0.0,    0.0,   0.00,   0.00, 1032.4,   91.3, -999.0
14-01-2022, 00:07:59,    231,    0.0,   -0.1,   0.00,   0.00, 1032.4,   91.3, -999.0
14-01-2022, 00:08:09,    232,    0.0,    0.0,   0.00,   0.00, 1032.4,   91.4, -999.0
14-01-2022, 00:08:19,    232,    0.0,    0.0,   0.00,   0.00, 1032.4,   91.3, -999.0
14-01-2022, 00:08:29,    232,    0.0,    0.0,   0.00,   0.00, 1032.4,   91.4, -999.0
14-01-2022, 00:08:39,    232,    0.0,   -0.1,   0.00,   0.00, 1032.4,   91.3, -999.0
14-01-2022, 00:08:49,    232,    0.0,   -0.1,   0.00,   0.00, 1032.4,   91.3, -999.0
14-01-2022, 00:08:59,    231,    0.0,   -0.1,   0.00,   0.00, 1032.4,   91.3, -999.0
14-01-2022, 00:09:08,    232,    0.0,   -0.1,   0.00,   0.00, 1032.4,   91.3, -999.0
14-01-2022, 00:09:19,    232,    0.0,    0.0,   0.00,   0.00, 1032.4,   91.3, -999.0
14-01-2022, 00:09:28,    232,    0.0,   -0.1,   0.00,   0.00, 1032.4,   91.3, -999.0
14-01-2022, 00:09:38,    232,    0.0,   -0.1,   0.00,   0.00, 1032.4,   91.3, -999.0
14-01-2022, 00:09:49,    232,    0.0,    0.0,   0.00,   0.00, 1032.4,   91.3, -999.0
14-01-2022, 00:09:58,    232,    0.0,   -0.1,   0.00,   0.00, 1032.4,   91.2, -999.0
14-01-2022, 00:10:08,    232,    0.0,   -0.2,   0.00,   0.00, 1032.4,   91.2, -999.0
14-01-2022, 00:10:18,    231,    0.0,    0.0,   0.00,   0.00, 1032.4,   91.2, -999.0
14-01-2022, 00:10:28,    232,    0.0,   -0.1,   0.00,   0.00, 1032.4,   91.3, -999.0
14-01-2022, 00:10:38,    231,    0.0,   -0.1,   0.00,   0.00, 1032.4,   91.2, -999.0
14-01-2022, 00:10:48,    232,    0.0,   -0.1,   0.00,   0.00, 1032.4,   91.1, -999.0
14-01-2022, 00:10:58,    232,    0.0,   -0.1,   0.00,   0.00, 1032.4,   91.2, -999.0
14-01-2022, 00:11:08,    232,    0.0,   -0.1,   0.00,   0.00, 1032.4,   91.3, -999.0
14-01-2022, 00:11:18,    231,    0.0,   -0.1,   0.00,   0.00, 1032.4,   91.2, -999.0
14-01-2022, 00:11:28,    232,    0.0,   -0.2,   0.00,   0.00, 1032.4,   91.2, -999.0
14-01-2022, 00:11:38,    231,    0.0,   -0.2,   0.00,   0.00, 1032.4,   91.2, -999.0
14-01-2022, 00:11:48,    233,    0.0,   -0.2,   0.00,   0.00, 1032.4,   91.1, -999.0
14-01-2022, 00:11:58,    232,    0.0,   -0.2,   0.00,   0.00, 1032.4,   91.2, -999.0
14-01-2022, 00:12:08,    231,    0.0,   -0.2,   0.00,   0.00, 1032.4,   91.2, -999.0
14-01-2022, 00:12:18,    232,    0.0,   -0.2,   0.00,   0.00, 1032.4,   91.2, -999.0
14-01-2022, 00:12:28,    232,    0.0,   -0.2,   0.00,   0.00, 1032.4,   91.1, -999.0
14-01-2022, 00:12:37,    232,    0.0,   -0.2,   0.00,   0.00, 1032.4,   91.2, -999.0
14-01-2022, 00:12:47,    232,    0.0,   -0.2,   0.00,   0.00, 1032.4,   91.2, -999.0
14-01-2022, 00:12:58,    232,    0.0,   -0.2,   0.00,   0.00, 1032.4,   91.2, -999.0
14-01-2022, 00:13:07,    232,    0.0,   -0.2,   0.00,   0.00, 1032.4,   91.1, -999.0
14-01-2022, 00:13:17,    232,    0.0,   -0.3,   0.00,   0.00, 1032.4,   91.3, -999.0
14-01-2022, 00:13:27,    232,    0.0,   -0.2,   0.00,   0.00, 1032.4,   91.4, -999.0
14-01-2022, 00:13:37,    231,    0.0,   -0.1,   0.00,   0.00, 1032.4,   91.5, -999.0
14-01-2022, 00:13:47,    232,    0.0,    0.0,   0.00,   0.00, 1032.3,   91.6, -999.0
14-01-2022, 00:13:57,    232,    0.0,    0.0,   0.00,   0.00, 1032.3,   91.7, -999.0
14-01-2022, 00:14:07,    232,    0.0,    0.1,   0.00,   0.00, 1032.4,   91.8, -999.0
14-01-2022, 00:14:17,    232,    0.0,    0.2,   0.00,   0.00, 1032.3,   92.0, -999.0
14-01-2022, 00:14:27,    232,    0.0,    0.2,   0.00,   0.00, 1032.3,   92.1, -999.0
14-01-2022, 00:14:37,    232,    0.0,    0.2,   0.00,   0.00, 1032.4,   92.0, -999.0
14-01-2022, 00:14:47,    232,    0.0,    0.1,   0.00,   0.00, 1032.3,   91.6, -999.0
14-01-2022, 00:14:57,    231,    0.0,    0.0,   0.00,   0.00, 1032.3,   91.3, -999.0
14-01-2022, 00:15:07,    232,    0.0,    0.0,   0.00,   0.00, 1032.3,   91.3, -999.0
14-01-2022, 00:15:17,    232,    0.0,    0.0,   0.00,   0.00, 1032.4,   91.2, -999.0
14-01-2022, 00:15:27,    231,    0.0,   -0.2,   0.00,   0.00, 1032.4,   91.1, -999.0
14-01-2022, 00:15:37,    232,    0.0,   -0.2,   0.00,   0.00, 1032.3,   90.9, -999.0
14-01-2022, 00:15:46,    231,    0.0,   -0.2,   0.00,   0.00, 1032.4,   90.9, -999.0
14-01-2022, 00:15:56,    232,    0.0,   -0.3,   0.00,   0.00, 1032.4,   90.9, -999.0
14-01-2022, 00:16:07,    232,    0.0,   -0.3,   0.00,   0.00, 1032.3,   90.8, -999.0
14-01-2022, 00:16:16,    232,    0.0,   -0.3,   0.00,   0.00, 1032.4,   91.0, -999.0
14-01-2022, 00:16:26,    232,    0.0,   -0.3,   0.00,   0.00, 1032.3,   91.0, -999.0
14-01-2022, 00:16:37,    231,    0.0,   -0.3,   0.00,   0.00, 1032.4,   91.0, -999.0
14-01-2022, 00:16:46,    231,    0.0,   -0.3,   0.00,   0.00, 1032.3,   91.2, -999.0
14-01-2022, 00:16:56,    232,    0.0,   -0.3,   0.00,   0.00, 1032.3,   91.3, -999.0
14-01-2022, 00:17:06,    231,    0.0,   -0.2,   0.00,   0.00, 1032.3,   91.3, -999.0
14-01-2022, 00:17:16,    232,    0.0,   -0.2,   0.00,   0.00, 1032.3,   91.3, -999.0
14-01-2022, 00:17:26,    231,    0.0,   -0.2,   0.00,   0.00, 1032.3,   91.2, -999.0
14-01-2022, 00:17:36,    232,    0.0,   -0.2,   0.00,   0.00, 1032.3,   91.3, -999.0
14-01-2022, 00:17:46,    231,    0.0,   -0.3,   0.00,   0.00, 1032.3,   91.3, -999.0
14-01-2022, 00:17:56,    232,    0.0,   -0.3,   0.00,   0.00, 1032.3,   91.2, -999.0
14-01-2022, 00:18:06,    231,    0.0,   -0.2,   0.00,   0.00, 1032.3,   91.2, -999.0
14-01-2022, 00:18:16,    232,    0.0,   -0.3,   0.00,   0.00, 1032.3,   91.2, -999.0
14-01-2022, 00:18:26,    231,    0.0,   -0.3,   0.00,   0.00, 1032.3,   91.2, -999.0
14-01-2022, 00:18:36,    232,    0.0,   -0.3,   0.00,   0.00, 1032.3,   91.2, -999.0
14-01-2022, 00:18:46,    232,    0.0,   -0.3,   0.00,   0.00, 1032.3,   91.1, -999.0
14-01-2022, 00:18:55,    232,    0.0,   -0.3,   0.00,   0.00, 1032.3,   91.1, -999.0
14-01-2022, 00:19:06,    231,    0.0,   -0.3,   0.00,   0.00, 1032.3,   91.1, -999.0
14-01-2022, 00:19:16,    232,    0.0,   -0.4,   0.00,   0.00, 1032.3,   91.2, -999.0
14-01-2022, 00:19:25,    232,    0.0,   -0.4,   0.00,   0.00, 1032.3,   91.2, -999.0
14-01-2022, 00:19:35,    231,    0.0,   -0.4,   0.00,   0.00, 1032.3,   91.2, -999.0
14-01-2022, 00:19:46,    232,    0.0,   -0.3,   0.00,   0.00, 1032.3,   91.4, -999.0
14-01-2022, 00:19:55,    232,    0.0,   -0.2,   0.00,   0.00, 1032.3,   91.4, -999.0
14-01-2022, 00:20:05,    232,    0.0,   -0.2,   0.00,   0.00, 1032.3,   91.5, -999.0
14-01-2022, 00:20:15,    232,    0.0,   -0.2,   0.00,   0.00, 1032.3,   91.6, -999.0
14-01-2022, 00:20:25,    231,    0.0,   -0.2,   0.00,   0.00, 1032.3,   91.5, -999.0
14-01-2022, 00:20:35,    232,    0.0,   -0.2,   0.00,   0.00, 1032.3,   91.5, -999.0
14-01-2022, 00:20:45,    232,    0.0,   -0.2,   0.00,   0.00, 1032.3,   91.4, -999.0
14-01-2022, 00:20:55,    231,    0.0,   -0.2,   0.00,   0.00, 1032.3,   91.6, -999.0
14-01-2022, 00:21:05,    232,    0.0,   -0.2,   0.00,   0.00, 1032.3,   91.6, -999.0
14-01-2022, 00:21:15,    232,    0.0,   -0.2,   0.00,   0.00, 1032.3,   91.6, -999.0
14-01-2022, 00:21:25,    231,    0.0,   -0.3,   0.00,   0.00, 1032.3,   91.5, -999.0
14-01-2022, 00:21:35,    231,    0.0,   -0.3,   0.00,   0.00, 1032.3,   91.6, -999.0
14-01-2022, 00:21:45,    232,    0.0,   -0.3,   0.00,   0.00, 1032.3,   91.5, -999.0
14-01-2022, 00:21:55,    232,    0.0,   -0.4,   0.00,   0.00, 1032.3,   91.4, -999.0
14-01-2022, 00:22:05,    231,    0.0,   -0.4,   0.00,   0.00, 1032.3,   91.4, -999.0
14-01-2022, 00:22:15,    232,    0.0,   -0.3,   0.00,   0.00, 1032.3,   91.3, -999.0
14-01-2022, 00:22:25,    231,    0.0,   -0.3,   0.00,   0.00, 1032.3,   91.3, -999.0
14-01-2022, 00:22:34,    231,    0.0,   -0.3,   0.00,   0.00, 1032.3,   91.5, -999.0
14-01-2022, 00:22:44,    232,    0.0,   -0.3,   0.00,   0.00, 1032.3,   91.6, -999.0
14-01-2022, 00:22:55,    232,    0.0,   -0.2,   0.00,   0.00, 1032.3,   91.7, -999.0
14-01-2022, 00:23:04,    231,    0.0,   -0.1,   0.00,   0.00, 1032.3,   91.8, -999.0
14-01-2022, 00:23:14,    232,    0.0,   -0.2,   0.00,   0.00, 1032.3,   91.8, -999.0
14-01-2022, 00:23:24,    231,    0.0,   -0.2,   0.00,   0.00, 1032.3,   91.8, -999.0
14-01-2022, 00:23:34,    232,    0.0,   -0.2,   0.00,   0.00, 1032.3,   91.8, -999.0
14-01-2022, 00:23:44,    232,    0.0,   -0.2,   0.00,   0.00, 1032.3,   91.6, -999.0
14-01-2022, 00:23:54,    232,    0.0,   -0.2,   0.00,   0.00, 1032.3,   91.6, -999.0
14-01-2022, 00:24:04,    232,    0.0,   -0.2,   0.00,   0.00, 1032.3,   91.7, -999.0
14-01-2022, 00:24:14,    232,    0.0,   -0.2,   0.00,   0.00, 1032.3,   91.5, -999.0
14-01-2022, 00:24:24,    232,    0.0,   -0.2,   0.00,   0.00, 1032.3,   91.4, -999.0
14-01-2022, 00:24:34,    231,    0.0,   -0.3,   0.00,   0.00, 1032.3,   91.4, -999.0
14-01-2022, 00:24:44,    232,    0.0,   -0.3,   0.00,   0.00, 1032.3,   91.3, -999.0
14-01-2022, 00:24:54,    231,    0.0,   -0.3,   0.00,   0.00, 1032.3,   91.3, -999.0
14-01-2022, 00:25:04,    232,    0.0,   -0.3,   0.00,   0.00, 1032.3,   91.4, -999.0
14-01-2022, 00:25:14,    232,    0.0,   -0.2,   0.00,   0.00, 1032.3,   91.8, -999.0
14-01-2022, 00:25:24,    232,    0.0,   -0.3,   0.00,   0.00, 1032.3,   91.8, -999.0
14-01-2022, 00:25:34,    231,    0.0,   -0.1,   0.00,   0.00, 1032.3,   92.0, -999.0
14-01-2022, 00:25:43,    232,    0.0,   -0.1,   0.00,   0.00, 1032.3,   92.0, -999.0
14-01-2022, 00:25:54,    232,    0.0,   -0.1,   0.00,   0.00, 1032.3,   92.0, -999.0
14-01-2022, 00:26:04,    232,    0.0,    0.0,   0.00,   0.00, 1032.3,   92.0, -999.0
14-01-2022, 00:26:13,    232,    0.0,    0.0,   0.00,   0.00, 1032.3,   92.1, -999.0
14-01-2022, 00:26:23,    232,    0.0,    0.0,   0.00,   0.00, 1032.3,   92.1, -999.0
14-01-2022, 00:26:34,    232,    0.0,    0.0,   0.00,   0.00, 1032.3,   92.1, -999.0
14-01-2022, 00:26:43,    231,    0.0,    0.0,   0.00,   0.00, 1032.3,   92.2, -999.0
14-01-2022, 00:26:53,    232,    0.0,    0.1,   0.00,   0.00, 1032.2,   92.2, -999.0
14-01-2022, 00:27:03,    232,    0.0,    0.0,   0.00,   0.00, 1032.2,   92.3, -999.0
14-01-2022, 00:27:13,    231,    0.0,    0.0,   0.00,   0.00, 1032.2,   92.3, -999.0
14-01-2022, 00:27:23,    231,    0.0,    0.1,   0.00,   0.00, 1032.2,   92.2, -999.0
14-01-2022, 00:27:33,    232,    0.0,    0.0,   0.00,   0.00, 1032.2,   92.1, -999.0
14-01-2022, 00:27:43,    232,    0.0,    0.0,   0.00,   0.00, 1032.2,   92.2, -999.0
14-01-2022, 00:27:53,    232,    0.0,    0.0,   0.00,   0.00, 1032.2,   92.2, -999.0
14-01-2022, 00:28:03,    232,    0.0,    0.0,   0.00,   0.00, 1032.3,   92.2, -999.0
14-01-2022, 00:28:13,    232,    0.0,    0.0,   0.00,   0.00, 1032.2,   92.1, -999.0
14-01-2022, 00:28:23,    232,    0.0,    0.0,   0.00,   0.00, 1032.2,   92.1, -999.0
14-01-2022, 00:28:33,    232,    0.0,    0.0,   0.00,   0.00, 1032.2,   92.0, -999.0
14-01-2022, 00:28:43,    234,    0.0,    0.0,   0.00,   0.00, 1032.2,   92.2, -999.0
14-01-2022, 00:28:52,    232,    0.0,    0.0,   0.00,   0.00, 1032.2,   92.2, -999.0
14-01-2022, 00:29:03,    232,    0.0,    0.1,   0.00,   0.00, 1032.3,   92.3, -999.0
14-01-2022, 00:29:13,    232,    0.0,    0.1,   0.00,   0.00, 1032.3,   92.4, -999.0
14-01-2022, 00:29:22,    232,    0.0,    0.2,   0.00,   0.00, 1032.2,   92.2, -999.0
14-01-2022, 00:29:32,    232,    0.0,    0.1,   0.00,   0.00, 1032.3,   92.2, -999.0
14-01-2022, 00:29:43,    232,    0.0,    0.0,   0.00,   0.00, 1032.2,   92.1, -999.0
14-01-2022, 00:29:52,    232,    0.0,    0.1,   0.00,   0.00, 1032.3,   92.2, -999.0
14-01-2022, 00:30:02,    232,    0.0,    0.2,   0.00,   0.00, 1032.3,   92.2, -999.0
14-01-2022, 00:30:12,    232,    0.0,    0.1,   0.00,   0.00, 1032.2,   92.2, -999.0
14-01-2022, 00:30:22,    231,    0.0,    0.1,   0.00,   0.00, 1032.2,   92.3, -999.0
14-01-2022, 00:30:32,    231,    0.0,    0.1,   0.00,   0.00, 1032.2,   92.3, -999.0
14-01-2022, 00:30:42,    232,    0.0,    0.2,   0.00,   0.00, 1032.3,   92.3, -999.0
14-01-2022, 00:30:52,    231,    0.0,    0.2,   0.00,   0.00, 1032.3,   92.3, -999.0
14-01-2022, 00:31:02,    232,    0.0,    0.2,   0.00,   0.00, 1032.3,   92.3, -999.0
14-01-2022, 00:31:12,    232,    0.0,    0.1,   0.00,   0.00, 1032.3,   92.3, -999.0
14-01-2022, 00:31:22,    232,    0.0,    0.2,   0.00,   0.00, 1032.2,   92.2, -999.0
14-01-2022, 00:31:32,    231,    0.0,    0.1,   0.00,   0.00, 1032.2,   92.3, -999.0
14-01-2022, 00:31:42,    231,    0.0,    0.2,   0.00,   0.00, 1032.2,   92.3, -999.0
14-01-2022, 00:31:52,    232,    0.0,    0.0,   0.00,   0.00, 1032.2,   92.2, -999.0
14-01-2022, 00:32:02,    231,    0.0,    0.1,   0.00,   0.00, 1032.3,   92.1, -999.0
14-01-2022, 00:32:12,    232,    0.0,    0.1,   0.00,   0.00, 1032.3,   92.1, -999.0
14-01-2022, 00:32:22,    231,    0.0,    0.0,   0.00,   0.00, 1032.3,   91.8, -999.0
14-01-2022, 00:32:31,    232,    0.0,   -0.1,   0.00,   0.00, 1032.2,   91.6, -999.0
14-01-2022, 00:32:41,    232,    0.0,   -0.1,   0.00,   0.00, 1032.2,   91.6, -999.0
14-01-2022, 00:32:52,    232,    0.0,   -0.1,   0.00,   0.00, 1032.2,   91.5, -999.0
14-01-2022, 00:33:01,    232,    0.0,   -0.2,   0.00,   0.00, 1032.2,   91.3, -999.0
14-01-2022, 00:33:11,    232,    0.0,   -0.2,   0.00,   0.00, 1032.3,   91.4, -999.0
14-01-2022, 00:33:22,    231,    0.0,   -0.2,   0.00,   0.00, 1032.2,   91.4, -999.0
14-01-2022, 00:33:31,    232,    0.0,   -0.2,   0.00,   0.00, 1032.2,   91.4, -999.0
14-01-2022, 00:33:41,    232,    0.0,   -0.2,   0.00,   0.00, 1032.3,   91.4, -999.0
14-01-2022, 00:33:51,    231,    0.0,   -0.2,   0.00,   0.00, 1032.3,   91.4, -999.0
14-01-2022, 00:34:01,    232,    0.0,   -0.3,   0.00,   0.00, 1032.3,   91.4, -999.0
14-01-2022, 00:34:11,    231,    0.0,   -0.3,   0.00,   0.00, 1032.3,   91.4, -999.0
14-01-2022, 00:34:21,    231,    0.0,   -0.3,   0.00,   0.00, 1032.3,   91.3, -999.0
14-01-2022, 00:34:41,    232,    0.0,   -0.4,   0.00,   0.00, 1032.2,   91.6, -999.0
14-01-2022, 00:34:51,    231,    0.0,   -0.3,   0.00,   0.00, 1032.2,   91.6, -999.0
14-01-2022, 00:35:01,    232,    0.0,   -0.3,   0.00,   0.00, 1032.2,   91.6, -999.0
14-01-2022, 00:35:11,    232,    0.0,   -0.3,   0.00,   0.00, 1032.2,   91.4, -999.0
14-01-2022, 00:35:21,    232,    0.0,   -0.3,   0.00,   0.00, 1032.2,   91.4, -999.0
14-01-2022, 00:35:31,    231,    0.0,   -0.3,   0.00,   0.00, 1032.2,   91.4, -999.0
14-01-2022, 00:35:40,    232,    0.0,   -0.4,   0.00,   0.00, 1032.2,   91.3, -999.0
14-01-2022, 00:35:51,    231,    0.0,   -0.4,   0.00,   0.00, 1032.2,   91.4, -999.0
14-01-2022, 00:36:01,    232,    0.0,   -0.3,   0.00,   0.00, 1032.2,   91.4, -999.0
14-01-2022, 00:36:10,    232,    0.0,   -0.4,   0.00,   0.00, 1032.3,   91.3, -999.0
14-01-2022, 00:36:20,    232,    0.0,   -0.4,   0.00,   0.00, 1032.2,   91.3, -999.0
14-01-2022, 00:36:31,    232,    0.0,   -0.4,   0.00,   0.00, 1032.2,   91.4, -999.0
14-01-2022, 00:36:40,    232,    0.0,   -0.4,   0.00,   0.00, 1032.2,   91.3, -999.0
14-01-2022, 00:36:50,    232,    0.0,   -0.4,   0.00,   0.00, 1032.2,   91.3, -999.0
14-01-2022, 00:37:00,    231,    0.0,   -0.4,   0.00,   0.00, 1032.2,   91.3, -999.0
14-01-2022, 00:37:10,    232,    0.0,   -0.5,   0.00,   0.00, 1032.2,   91.2, -999.0
14-01-2022, 00:37:20,    231,    0.0,   -0.5,   0.00,   0.00, 1032.2,   91.3, -999.0
14-01-2022, 00:37:30,    232,    0.0,   -0.5,   0.00,   0.00, 1032.3,   91.2, -999.0
14-01-2022, 00:37:40,    232,    0.0,   -0.4,   0.00,   0.00, 1032.2,   91.3, -999.0
14-01-2022, 00:37:50,    232,    0.0,   -0.4,   0.00,   0.00, 1032.2,   91.2, -999.0
14-01-2022, 00:38:00,    232,    0.0,   -0.4,   0.00,   0.00, 1032.2,   91.3, -999.0
14-01-2022, 00:38:10,    232,    0.0,   -0.5,   0.00,   0.00, 1032.2,   91.2, -999.0
14-01-2022, 00:38:20,    232,    0.0,   -0.4,   0.00,   0.00, 1032.2,   91.3, -999.0
14-01-2022, 00:38:30,    232,    0.0,   -0.5,   0.00,   0.00, 1032.3,   91.3, -999.0
14-01-2022, 00:38:40,    232,    0.0,   -0.5,   0.00,   0.00, 1032.3,   91.3, -999.0
14-01-2022, 00:38:49,    232,    0.0,   -0.5,   0.00,   0.00, 1032.2,   91.3, -999.0
14-01-2022, 00:39:00,    232,    0.0,   -0.5,   0.00,   0.00, 1032.2,   91.3, -999.0
14-01-2022, 00:39:10,    232,    0.0,   -0.5,   0.00,   0.00, 1032.2,   91.4, -999.0
14-01-2022, 00:39:19,    232,    0.0,   -0.4,   0.00,   0.00, 1032.2,   91.4, -999.0
14-01-2022, 00:39:30,    231,    0.0,   -0.4,   0.00,   0.00, 1032.2,   91.5, -999.0
14-01-2022, 00:39:39,    232,    0.0,   -0.4,   0.00,   0.00, 1032.2,   91.4, -999.0
14-01-2022, 00:39:49,    231,    0.0,   -0.5,   0.00,   0.00, 1032.2,   91.4, -999.0
14-01-2022, 00:39:59,    232,    0.0,   -0.5,   0.00,   0.00, 1032.2,   91.4, -999.0
14-01-2022, 00:40:09,    232,    0.0,   -0.5,   0.00,   0.00, 1032.2,   91.4, -999.0
14-01-2022, 00:40:19,    232,    0.0,   -0.5,   0.00,   0.00, 1032.2,   91.3, -999.0
14-01-2022, 00:40:29,    231,    0.0,   -0.5,   0.00,   0.00, 1032.2,   91.3, -999.0
14-01-2022, 00:40:39,    232,    0.0,   -0.5,   0.00,   0.00, 1032.2,   91.3, -999.0
14-01-2022, 00:40:49,    231,    0.0,   -0.7,   0.00,   0.00, 1032.2,   91.4, -999.0
14-01-2022, 00:40:59,    232,    0.0,   -0.6,   0.00,   0.00, 1032.2,   91.3, -999.0
14-01-2022, 00:41:09,    232,    0.0,   -0.6,   0.00,   0.00, 1032.2,   91.3, -999.0
14-01-2022, 00:41:19,    231,    0.0,   -0.6,   0.00,   0.00, 1032.2,   91.3, -999.0
14-01-2022, 00:41:29,    232,    0.0,   -0.6,   0.00,   0.00, 1032.2,   91.2, -999.0
14-01-2022, 00:41:39,    232,    0.0,   -0.6,   0.00,   0.00, 1032.2,   91.1, -999.0
14-01-2022, 00:41:49,    232,    0.0,   -0.7,   0.00,   0.00, 1032.2,   91.3, -999.0
14-01-2022, 00:41:59,    231,    0.0,   -0.7,   0.00,   0.00, 1032.2,   91.3, -999.0
14-01-2022, 00:42:09,    232,    0.0,   -0.7,   0.00,   0.00, 1032.1,   91.3, -999.0
14-01-2022, 00:42:19,    232,    0.0,   -0.7,   0.00,   0.00, 1032.1,   91.4, -999.0
14-01-2022, 00:42:28,    232,    0.0,   -0.7,   0.00,   0.00, 1032.1,   91.5, -999.0
14-01-2022, 00:42:39,    231,    0.0,   -0.6,   0.00,   0.00, 1032.2,   91.6, -999.0
14-01-2022, 00:42:49,    232,    0.0,   -0.6,   0.00,   0.00, 1032.1,   91.7, -999.0
14-01-2022, 00:42:58,    232,    0.0,   -0.5,   0.00,   0.00, 1032.2,   91.9, -999.0
14-01-2022, 00:43:08,    232,    0.0,   -0.4,   0.00,   0.00, 1032.2,   91.9, -999.0
14-01-2022, 00:43:18,    231,    0.0,   -0.4,   0.00,   0.00, 1032.2,   92.0, -999.0
14-01-2022, 00:43:28,    232,    0.0,   -0.4,   0.00,   0.00, 1032.2,   92.1, -999.0
14-01-2022, 00:43:38,    232,    0.0,   -0.4,   0.00,   0.00, 1032.2,   92.1, -999.0
14-01-2022, 00:43:48,    232,    0.0,   -0.3,   0.00,   0.00, 1032.1,   92.2, -999.0
14-01-2022, 00:43:58,    231,    0.0,   -0.4,   0.00,   0.00, 1032.2,   92.1, -999.0
14-01-2022, 00:44:08,    232,    0.0,   -0.3,   0.00,   0.00, 1032.2,   92.2, -999.0
14-01-2022, 00:44:18,    232,    0.0,   -0.3,   0.00,   0.00, 1032.2,   92.2, -999.0
14-01-2022, 00:44:28,    232,    0.0,   -0.3,   0.00,   0.00, 1032.2,   92.2, -999.0
14-01-2022, 00:44:38,    232,    0.0,   -0.3,   0.00,   0.00, 1032.1,   92.2, -999.0
14-01-2022, 00:44:48,    232,    0.0,   -0.2,   0.00,   0.00, 1032.1,   92.3, -999.0
14-01-2022, 00:44:58,    232,    0.0,   -0.2,   0.00,   0.00, 1032.1,   92.3, -999.0
14-01-2022, 00:45:08,    232,    0.0,   -0.2,   0.00,   0.00, 1032.1,   92.3, -999.0
14-01-2022, 00:45:18,    231,    0.0,   -0.1,   0.00,   0.00, 1032.1,   92.4, -999.0
14-01-2022, 00:45:28,    232,    0.0,   -0.2,   0.00,   0.00, 1032.1,   92.2, -999.0
14-01-2022, 00:45:37,    232,    0.0,   -0.2,   0.00,   0.00, 1032.1,   92.2, -999.0
14-01-2022, 00:45:48,    232,    0.0,   -0.3,   0.00,   0.00, 1032.2,   92.2, -999.0
14-01-2022, 00:45:58,    232,    0.0,   -0.2,   0.00,   0.00, 1032.1,   92.3, -999.0
14-01-2022, 00:46:07,    231,    0.0,   -0.1,   0.00,   0.00, 1032.1,   92.4, -999.0
14-01-2022, 00:46:17,    232,    0.0,   -0.1,   0.00,   0.00, 1032.1,   92.3, -999.0
14-01-2022, 00:46:28,    231,    0.0,   -0.1,   0.00,   0.00, 1032.1,   92.4, -999.0
14-01-2022, 00:46:37,    232,    0.0,   -0.1,   0.00,   0.00, 1032.1,   92.5, -999.0
14-01-2022, 00:46:47,    232,    0.0,   -0.1,   0.00,   0.00, 1032.1,   92.5, -999.0